Regional Weather Roundup
Issued by NWS

Home | Current Version | Previous Version | Graphics & Text | Print | Product List | Glossary Off
Versions: 1 2 3 4 5 6 7 8 9 10 11 12 13 14 15 16 17 18 19 20 21 22 23 24 25 26 27 28 29 30 31 32 33 34 35 36 37 38 39 40 41 42 43 44 45 46 47 48 49 50

000
ASUS43 KDMX 230107
RWRIA

WEATHER ROUNDUP FOR IOWA
NATIONAL WEATHER SERVICE DES MOINES IA
700 PM CST SAT NOV 22 2014

NOTE: "FAIR" INDICATES FEW OR NO CLOUDS BELOW 12,000 FEET WITH NO
SIGNIFICANT WEATHER AND/OR OBSTRUCTIONS TO VISIBILITY.

* - THESE STATIONS ARE NOT NWS STATIONS...THUS NOT UNDER NWS
QUALITY CONTROL.  THEY ALSO DO NOT REPORT WEATHER SUCH
AS PRECIPITATION OR FOG.

IAZ001>003-012>014-020>022-031>034-043>046-230200-
   NORTHWEST IOWA

CITY           SKY/WX    TMP DP  RH WIND       PRES   REMARKS
CARROLL *      CLOUDY    52  50  93 S18       29.60F
CHEROKEE *     PTCLDY    37  37 100 S6        29.56F FOG     WCI  33
DENISON *      CLOUDY    52  52 100 S16G22    29.58S
LE MARS *      CLEAR     41  39  93 S12       29.54S
ORANGE CITY *  CLEAR     39  36  87 S8        29.53S WCI  34
SHELDON *      CLEAR     36  36 100 S13       29.52F FOG     WCI  27
SIOUX CITY     CLEAR     39  36  89 SE12      29.54F WCI  32
SPENCER        PTCLDY    38  35  89 S10       29.56F WCI  31
STORM LAKE *   PTCLDY    39  37  93 S13       29.57F FOG     WCI  32
$$

IAZ055>058-069>071-079>083-090>094-230200-
   SOUTHWEST IOWA

CITY           SKY/WX    TMP DP  RH WIND       PRES   REMARKS
ATLANTIC *     CLOUDY    54  54 100 S16G23    29.62F FOG
AUDUBON *      CLOUDY    54  46  76 S13G23    29.63F
CLARINDA *     CLOUDY    55  55 100 S14G20    29.69S
COUNCIL BLFS * CLOUDY    55  55 100 S16       29.60S
CRESTON *      CLOUDY    54  54 100 S21G28    29.68S
HARLAN  *      CLOUDY    54  54 100 S15       29.64S
LAMONI         MOCLDY    53  52  96 S12       29.71F
RED OAK *      CLOUDY    55  55 100 S15G21    29.64F FOG
SHENANDOAH *   CLOUDY    55  55 100 S18G25    29.65F
$$

IAZ047>049-059>061-072>074-084-230200-
   CENTRAL IOWA

CITY           SKY/WX    TMP DP  RH WIND       PRES   REMARKS
AMES           CLOUDY    51  49  92 S12       29.67F FOG
ANKENY *       CLOUDY    54  54 100 S15       29.67F
CHARITON *     CLOUDY    55  52  88 S16       29.71F
DES MOINES     CLOUDY    56  52  86 S15       29.68F
GRINNELL*      CLOUDY    54  52  94 S13       29.72F
KNOXVILLE *    CLOUDY    55  52  88 S13G18    29.70F
MARSHALLTOWN   CLOUDY    51  50  96 S14       29.68S FOG
PELLA *        CLOUDY    55  54  94 S10       29.73F
PERRY *        CLOUDY    52  50  93 S10       29.65S
$$

IAZ004>006-015-016-023>025-035-036-230200-
   NORTH CENTRAL IOWA

CITY           SKY/WX    TMP DP  RH WIND       PRES   REMARKS
ALGONA *       MOCLDY    43  41  93 S18       29.60F
CLARION *      CLOUDY    45  45 100 S13       29.63F
ESTHERVILLE    MOCLDY    36  35  96 S16       29.55F FOG     WCI  26
FORT DODGE *   CLOUDY    50  46  87 S14       29.62F
MASON CITY     MOCLDY    39  37  92 S10       29.65F FOG     WCI  32
FOREST CITY *  CLEAR     36  36 100 SE7       29.62F FOG     WCI  30
IOWA FALLS *   CLOUDY    50  48  93 S13G18    29.67F
$$

IAZ007>011-017>019-026>030-037>042-050>054-066-230200-
   NORTHEAST IOWA

CITY           SKY/WX    TMP DP  RH WIND       PRES   REMARKS
CEDAR RAPIDS   CLOUDY    52  52 100 S14       29.74F
CHARLES CITY * CLOUDY    43  43 100 S12       29.67F
CLINTON *      CLOUDY    52  48  87 S14       29.82F
DECORAH *      PTCLDY    43  43 100 S9        29.68F FOG
DUBUQUE        CLOUDY    48  48 100 S14       29.75F FOG
MONTICELLO *   CLOUDY    52  52 100 S10       29.75F
OELWEIN *      CLOUDY    48  46  93 S10       29.71F FOG
WATERLOO       CLOUDY    50  48  93 S10       29.70F
$$

IAZ064-065-067-068-078-230200-
   EAST CENTRAL IOWA

CITY           SKY/WX    TMP DP  RH WIND       PRES   REMARKS
DAVENPORT      CLOUDY    53  48  83 S13       29.80F
IOWA CITY      CLOUDY    53  51  93 S12       29.77F
MT. PLEASANT * CLOUDY    54  48  82 S13       29.79F
MUSCATINE *    CLOUDY    54  50  87 S10       29.79F
QUAD CITIES    CLOUDY    55  49  80 S13       29.80F
$$

IAZ062-063-075>077-085>089-095>099-230200-
   SOUTHEAST IOWA

CITY           SKY/WX    TMP DP  RH WIND       PRES   REMARKS
BURLINGTON     CLOUDY    54  49  83 S12       29.81F
FAIRFIELD *    CLOUDY    54  50  87 S16       29.76F
FORT MADISON *   N/A     55  50  82 S9        29.82S
KEOKUK *       PTCLDY    55  50  82 S13       29.80F
OSKALOOSA *    CLOUDY    52  50  93 S9        29.74F
CENTERVILLE *  CLOUDY    55  54  94 S10       29.76S
OTTUMWA        CLOUDY    54  50  86 S12       29.74F
WASHINGTON *   CLOUDY    55  55 100 S13       29.77F
$$

ABBREVIATIONS USED IN REMARKS
   TC - TEMPERATURES IN CELSIUS
  WCI - WIND CHILL INDEX
   HX - HEAT INDEX
  VSB - VISIBILITY
$$



USA.gov is the U.S. government's official web portal to all federal, state and local government web resources and services.